DW3219 Weather Reports


Display with metric or nautical units.
time (UTC)temp
F
wind
direction
speed
MPH
gust
MPH
rain 1hr
in
rain 24hr
in
rain mn
in
humidity
%
barometer
mb
20260508013054 54 84 0.0 1.0 0.00 0.05 0.02 77 1009.8
20260508011604 55 32 0.0 0.0 0.02 0.05 0.02 76 1009.4
20260508010053 54 311 0.0 6.0 0.02 0.05 0.02 75 1009.4
20260508004555 53 292 0.0 7.0 0.02 0.05 0.02 76 1009.8
20260508003049 54 348 4.0 26.0 0.02 0.05 0.02 73 1010.2
20260508001533 60 265 0.0 0.0 0.00 0.03 0.00 60 1009.1
20260508000031 60 250 0.0 9.0 0.00 0.03 0.00 60 1008.4
20260507234531 61 198 1.0 10.0 0.00 0.03 0.00 57 1008.1
20260507233033 63 238 0.0 2.0 0.00 0.03 0.00 47 1008.1
20260507231537 62 185 0.0 0.0 0.00 0.03 0.00 49 1008.1
20260507230024 62 304 0.0 0.0 0.00 0.03 0.00 55 1008.2
20260507224523 60 317 0.0 6.0 0.00 0.03 0.00 57 1008.5
20260507223020 60 296 0.0 3.0 0.00 0.03 0.00 57 1008.8
20260507221513 60 306 0.0 3.0 0.00 0.03 0.00 59 1009.0
20260507220007 60 17 0.0 0.0 0.00 0.03 0.00 58 1009.1
20260507214503 60 44 0.0 1.0 0.00 0.03 0.00 60 1008.9
20260507213003 59 90 0.0 1.0 0.00 0.03 0.00 64 1008.8
20260507211559 59 61 0.0 9.0 0.00 0.03 0.00 62 1009.0
20260507210058 59 38 2.0 12.0 0.00 0.03 0.03 62 1009.3
20260507204602 59 67 0.0 13.0 0.00 0.03 0.03 64 1009.5
20260507203106 60 62 3.0 17.0 0.00 0.03 0.03 61 1009.2
20260507201556 61 74 1.0 14.0 0.00 0.03 0.03 59 1009.1
20260507200048 61 97 1.0 8.0 0.00 0.03 0.03 57 1009.3
20260507194541 60 105 0.0 2.0 0.00 0.03 0.03 63 1009.6
20260507193038 59 59 0.0 4.0 0.00 0.03 0.03 63 1009.8
20260507191536 58 47 0.0 5.0 0.00 0.03 0.03 66 1010.0
20260507190035 57 114 0.0 6.0 0.00 0.03 0.03 66 1009.9
20260507184534 56 114 0.0 7.0 0.00 0.03 0.03 68 1010.3
20260507183039 56 98 0.0 7.0 0.00 0.03 0.03 69 1010.4
20260507181533 56 111 0.0 6.0 0.00 0.03 0.03 72 1010.5
20260507180033 55 109 0.0 13.0 0.00 0.03 0.03 76 1010.5
20260507174526 53 117 0.0 7.0 0.00 0.03 0.03 80 1010.6
20260507173019 52 103 0.0 7.0 0.00 0.03 0.03 84 1010.7
20260507171519 51 78 0.0 5.0 0.00 0.03 0.03 83 1010.9
20260507170021 51 61 0.0 9.0 0.00 0.03 0.03 82 1010.9
20260507164518 51 92 0.0 0.0 0.00 0.03 0.03 81 1011.2
20260507163017 50 51 0.0 6.0 0.00 0.03 0.03 82 1011.2
20260507161532 51 74 0.0 7.0 0.00 0.03 0.03 80 1011.2
20260507160101 51 177 0.0 5.0 0.00 0.03 0.03 79 1010.9
20260507154559 51 142 0.0 6.0 0.00 0.03 0.03 78 1011.2
20260507153047 50 176 1.0 4.0 0.00 0.03 0.03 82 1011.2
20260507151543 49 134 0.0 0.0 0.00 0.03 0.03 87 1011.1
20260507150028 48 107 0.0 2.0 0.00 0.03 0.03 89 1011.4
20260507144530 47 85 0.0 0.0 0.00 0.03 0.03 88 1011.7
20260507143027 46 84 0.0 0.0 0.01 0.03 0.03 88 1011.6
20260507141526 46 86 0.0 5.0 0.01 0.03 0.03 88 1011.3
20260507140026 47 140 0.0 1.0 0.01 0.03 0.03 86 1011.2
20260507134535 47 209 0.0 0.0 0.01 0.03 0.03 88 1010.8
20260507133023 47 210 0.0 0.0 0.00 0.02 0.02 88 1010.7
20260507131530 47 211 0.0 0.0 0.00 0.02 0.02 86 1011.1
20260507130009 47 211 0.0 0.0 0.00 0.02 0.02 84 1011.1
20260507124508 47 213 0.0 0.0 0.00 0.02 0.02 81 1011.2
20260507123016 47 179 0.0 1.0 0.00 0.02 0.02 78 1010.8
20260507121507 47 175 0.0 4.0 0.00 0.02 0.02 79 1010.4
20260507120006 47 162 0.0 8.0 0.00 0.02 0.02 78 1010.3
20260507114504 47 189 3.0 7.0 0.00 0.02 0.02 80 1010.6
20260507113004 47 204 0.0 9.0 0.00 0.02 0.02 82 1011.0
20260507111501 48 233 0.0 5.0 0.00 0.02 0.02 84 1010.7
20260507104539 48 155 0.0 5.0 0.01 0.02 0.02 82 1010.4
20260507103028 49 180 0.0 1.0 0.01 0.02 0.02 81 1010.9
20260507101524 49 175 0.0 3.0 0.02 0.02 0.02 81 1011.3
20260507100023 49 148 0.0 0.0 0.02 0.02 0.02 80 1011.3
20260507094522 50 16 0.0 10.0 0.01 0.01 0.01 78 1011.6
20260507093020 50 296 8.0 19.0 0.01 0.01 0.01 74 1011.7
20260507091518 52 319 3.0 20.0 0.00 0.00 0.00 66 1011.4
20260507090015 51 287 4.0 15.0 0.00 0.00 0.00 69 1011.1
20260507084526 50 360 1.0 11.0 0.00 0.00 0.00 55 1011.5
20260507083059 49 294 0.0 4.0 0.00 0.00 0.00 49 1011.6
20260507081556 50 302 0.0 5.0 0.00 0.00 0.00 43 1011.7
20260507080054 49 271 0.0 0.0 0.00 0.00 0.00 38 1011.5
20260507074552 50 261 0.0 0.0 0.00 0.00 0.00 37 1010.9
20260507073050 51 200 0.0 0.0 0.00 0.00 0.00 34 1010.6
20260507071552 51 200 0.0 2.0 0.00 0.00 0.00 33 1010.9
20260507070059 51 160 0.0 1.0 0.00 0.00 0.00 33 1010.9
20260507064546 51 136 0.0 0.0 0.00 0.00 0.00 31 1010.6
20260507063034 53 152 0.0 4.0 0.00 0.00 0.00 31 1010.3
20260507061529 54 149 0.0 7.0 0.00 0.00 0.00 27 1010.3
20260507060027 54 208 0.0 0.0 0.00 0.00 0.00 27 1010.5
20260507054525 53 202 1.0 10.0 0.00 0.00 0.00 27 1010.8
20260507053022 53 246 0.0 13.0 0.00 0.00 0.00 30 1011.7
20260507051533 54 202 0.0 5.0 0.00 0.00 0.00 24 1011.4
20260507050020 53 171 0.0 0.0 0.00 0.00 0.00 26 1011.4
20260507044520 53 158 0.0 0.0 0.00 0.00 0.00 26 1011.4
20260507043009 52 158 0.0 0.0 0.00 0.00 0.00 27 1011.5
20260507041508 53 165 0.0 3.0 0.00 0.00 0.00 27 1011.7
20260507040006 53 176 0.0 0.0 0.00 0.00 0.00 26 1011.5
20260507034506 53 169 0.0 5.0 0.00 0.00 0.00 27 1011.3
20260507033004 54 180 0.0 4.0 0.00 0.00 0.00 25 1011.3
20260507031502 54 161 0.0 0.0 0.00 0.00 0.00 25 1011.3
20260507030100 54 167 0.0 1.0 0.00 0.00 0.00 24 1011.2
20260507024601 55 163 0.0 4.0 0.00 0.00 0.00 24 1011.2
20260507023043 56 171 0.0 0.0 0.00 0.00 0.00 23 1011.4
20260507021547 57 169 0.0 3.0 0.00 0.00 0.00 23 1011.2
20260507020039 57 176 0.0 2.0 0.00 0.00 0.00 22 1011.2
20260507014543 58 180 1.0 5.0 0.00 0.00 0.00 22 1011.2